CW8078 Weather Reports


time (UTC)temp
F
wind
direction
speed
knots
gust
knots
rain 1hr
in
rain 24hr
in
rain mn
in
humidity
%
barometer
mb
20260503004303 56 327 0.0 0.0 0.00 0.00 0.00 48 1017.0
20260503003803 56 327 0.0 0.0 0.00 0.00 0.00 48 1016.9
20260503003303 57 327 0.0 0.0 0.00 0.00 0.00 47 1016.9
20260503001803 57 327 0.0 0.0 0.00 0.00 0.00 46 1016.8
20260503001304 58 327 0.0 0.0 0.00 0.00 0.00 44 1016.9
20260503000803 58 327 0.0 0.0 0.00 0.00 0.00 46 1016.9
20260503000304 58 327 0.0 0.0 0.00 0.00 0.00 48 1016.9
20260502234803 59 327 0.0 0.0 0.00 0.00 0.00 45 1016.9
20260502234303 60 324 0.0 0.0 0.00 0.00 0.00 44 1017.0
20260502233803 60 317 0.0 0.0 0.00 0.00 0.00 43 1017.0
20260502233303 60 317 0.0 2.6 0.00 0.00 0.00 42 1017.0
20260502231803 61 299 0.0 0.9 0.00 0.00 0.00 41 1017.0
20260502231303 61 304 0.0 0.0 0.00 0.00 0.00 40 1017.0
20260502230803 61 194 0.0 0.9 0.00 0.00 0.00 38 1017.1
20260502230303 61 194 0.0 1.7 0.00 0.00 0.00 38 1017.1
20260502224303 61 293 0.0 0.0 0.00 0.00 0.00 41 1017.1
20260502223803 61 293 0.0 0.0 0.00 0.00 0.00 40 1017.1
20260502223303 61 11 0.0 2.6 0.00 0.00 0.00 38 1017.1
20260502221803 62 288 0.0 0.9 0.00 0.00 0.00 40 1017.1
20260502221303 62 311 0.0 5.2 0.00 0.00 0.00 39 1017.1
20260502220803 62 253 0.0 0.9 0.00 0.00 0.00 41 1017.1
20260502214303 62 353 0.0 0.0 0.00 0.00 0.00 38 1017.2
20260502213803 61 318 0.0 0.0 0.00 0.00 0.00 41 1017.2
20260502211803 61 51 0.0 0.0 0.00 0.00 0.00 42 1017.2
20260502211303 61 4 0.0 1.7 0.00 0.00 0.00 41 1017.3
20260502210803 62 334 0.0 2.6 0.00 0.00 0.00 43 1017.4
20260502210304 61 0 0.0 0.9 0.00 0.00 0.00 40 1017.4
20260502204803 60 130 0.0 0.0 0.00 0.00 0.00 42 1017.6
20260502204303 61 80 0.0 0.0 0.00 0.00 0.00 43 1017.6
20260502203804 61 65 0.0 1.7 0.00 0.00 0.00 40 1017.6
20260502201803 61 192 0.0 0.0 0.00 0.00 0.00 39 1017.8
20260502201303 61 304 0.0 0.0 0.00 0.00 0.00 40 1017.9
20260502200804 61 271 0.0 0.0 0.00 0.00 0.00 38 1018.0
20260502200303 62 209 0.0 5.2 0.00 0.00 0.00 41 1018.0
20260502194803 60 7 0.0 0.0 0.00 0.00 0.00 40 1018.1
20260502193803 61 6 0.0 0.0 0.00 0.00 0.00 40 1018.2
20260502193303 61 17 0.0 4.3 0.00 0.00 0.00 39 1018.3
20260502191803 61 246 0.0 0.9 0.00 0.00 0.00 39 1018.3
20260502190303 61 348 0.0 2.6 0.00 0.00 0.00 42 1018.4
20260502184804 61 0 0.9 7.8 0.00 0.00 0.00 43 1018.5
20260502184303 61 273 0.0 0.9 0.00 0.00 0.00 37 1018.5
20260502183804 62 17 0.0 0.0 0.00 0.00 0.00 38 1018.5
20260502183304 61 225 0.0 2.6 0.00 0.00 0.00 38 1018.6
20260502181803 62 13 0.0 0.0 0.00 0.00 0.00 34 1018.7
20260502181303 63 241 0.9 6.1 0.00 0.00 0.00 36 1018.7
20260502180803 63 321 0.0 7.0 0.00 0.00 0.00 39 1018.7
20260502170303 62 355 0.9 10.4 0.00 0.00 0.00 39 1018.9
20260502164304 62 323 0.9 7.8 0.00 0.00 0.00 40 1019.1
20260502163803 59 224 0.0 0.9 0.00 0.00 0.00 43 1019.1
20260502161803 58 333 0.0 2.6 0.00 0.00 0.00 42 1019.1
20260502161304 58 324 0.0 2.6 0.00 0.00 0.00 45 1019.1
20260502160804 58 347 0.0 5.2 0.00 0.00 0.00 43 1019.1
20260502160304 58 28 0.0 10.4 0.00 0.00 0.00 42 1019.1
20260502151803 56 324 0.0 0.0 0.00 0.00 0.00 54 1019.1
20260502151303 56 344 0.0 0.0 0.00 0.00 0.00 55 1019.1
20260502150804 56 297 0.0 0.9 0.00 0.00 0.00 52 1019.1
20260502123802 45 30 0.0 0.0 0.00 0.00 0.00 88 1018.0
20260502121802 44 287 0.0 0.0 0.00 0.00 0.00 91 1017.9
20260502121302 44 287 0.0 0.0 0.00 0.00 0.00 91 1017.8
20260502120302 43 290 0.0 0.0 0.00 0.00 0.00 91 1017.6
20260502114802 43 320 0.0 0.0 0.00 0.00 0.00 91 1017.3
20260502113802 42 315 0.0 0.0 0.00 0.00 0.00 91 1017.3
20260502113303 42 315 0.0 0.0 0.00 0.00 0.00 91 1017.2
20260502111802 42 311 0.0 0.0 0.00 0.00 0.00 90 1017.2
20260502111302 42 311 0.0 0.0 0.00 0.00 0.00 91 1017.2
20260502110802 42 311 0.0 0.0 0.00 0.00 0.00 91 1017.1
20260502110302 42 311 0.0 0.0 0.00 0.00 0.00 90 1017.0
20260502104803 42 311 0.0 0.0 0.00 0.00 0.00 90 1016.9
20260502104302 42 311 0.0 0.0 0.00 0.00 0.00 90 1016.9
20260502103802 42 311 0.0 0.0 0.00 0.00 0.00 90 1016.8
20260502103302 43 309 0.0 0.0 0.00 0.00 0.00 90 1016.7
20260502101302 43 310 0.0 0.0 0.00 0.00 0.00 90 1016.6
20260502100802 43 309 0.0 0.0 0.00 0.00 0.00 90 1016.6
20260502100303 43 319 0.0 0.0 0.00 0.00 0.00 90 1016.5
20260502091302 43 0 0.0 0.0 0.00 0.00 0.00 90 1016.3
20260502090802 43 0 0.0 0.0 0.00 0.00 0.00 90 1016.3
20260502090302 43 0 0.0 0.0 0.00 0.00 0.00 90 1016.2
20260502071303 46 0 0.0 0.0 0.00 0.00 0.00 84 1015.8
20260502070802 46 355 0.0 0.0 0.00 0.00 0.00 84 1015.9
20260502070302 46 351 0.0 0.0 0.00 0.00 0.00 83 1015.8
20260502064802 46 336 0.0 0.9 0.00 0.00 0.00 83 1015.9
20260502063803 47 312 0.0 0.0 0.00 0.00 0.00 82 1016.0
20260502063303 47 15 0.0 0.0 0.00 0.00 0.00 81 1016.0
20260502061803 47 338 0.0 0.0 0.00 0.00 0.00 80 1016.0
20260502061303 47 5 0.0 0.0 0.00 0.00 0.00 81 1016.0
20260502060802 47 308 0.0 0.0 0.00 0.00 0.00 80 1016.0
20260502060302 47 16 0.0 0.0 0.00 0.00 0.00 80 1016.0
20260502054802 47 315 0.0 1.7 0.00 0.00 0.00 80 1016.0
20260502054302 47 31 0.0 0.0 0.00 0.00 0.00 80 1016.0
20260502053802 47 356 0.0 0.0 0.00 0.00 0.00 81 1016.0
20260502051803 45 283 0.0 0.0 0.00 0.00 0.00 84 1015.8
20260502051302 45 325 0.0 0.0 0.00 0.00 0.00 84 1015.8
20260502050802 45 321 0.0 0.0 0.00 0.00 0.00 84 1015.8
20260502050303 45 317 0.0 0.0 0.00 0.00 0.00 83 1015.6
20260502044803 46 350 0.0 0.0 0.00 0.00 0.00 81 1015.7
20260502044303 46 350 0.0 0.0 0.00 0.00 0.00 80 1015.6
20260502043802 47 350 0.0 0.0 0.00 0.00 0.00 81 1015.7
20260502043303 47 350 0.0 0.0 0.00 0.00 0.00 80 1015.7
20260502041803 47 350 0.0 0.0 0.00 0.00 0.00 79 1015.6
20260502041303 47 350 0.0 0.0 0.00 0.00 0.00 80 1015.7
20260502040802 47 350 0.0 0.0 0.00 0.00 0.00 79 1015.8
20260502040302 47 336 0.0 0.0 0.00 0.00 0.00 79 1015.7
20260502034803 49 287 0.0 0.0 0.00 0.00 0.00 76 1015.6
20260502033802 49 287 0.0 0.0 0.00 0.00 0.00 72 1015.6
20260502033302 50 287 0.0 0.0 0.00 0.00 0.00 72 1015.6
20260502031803 51 287 0.0 0.0 0.00 0.00 0.00 70 1015.7
20260502031302 51 287 0.0 0.0 0.00 0.00 0.00 69 1015.6
20260502030802 51 287 0.0 0.0 0.00 0.00 0.00 69 1015.6
20260502030302 51 287 0.0 0.0 0.00 0.00 0.00 69 1015.6
20260502024803 52 287 0.0 0.0 0.00 0.00 0.00 69 1015.4
20260502024302 52 287 0.0 0.0 0.00 0.00 0.00 72 1015.4
20260502023803 53 287 0.0 0.0 0.00 0.00 0.00 68 1015.4
20260502023303 53 287 0.0 0.0 0.00 0.00 0.00 68 1015.4
20260502021802 52 287 0.0 0.0 0.00 0.00 0.00 69 1015.3
20260502021302 52 278 0.0 0.0 0.00 0.00 0.00 69 1015.5
20260502020802 52 5 0.0 0.0 0.00 0.00 0.00 69 1015.3
20260502020302 52 5 0.0 0.0 0.00 0.00 0.00 70 1015.1
20260502014302 53 5 0.0 0.0 0.00 0.00 0.00 65 1014.7
20260502013803 53 5 0.0 0.0 0.00 0.00 0.00 65 1014.6
20260502013303 54 5 0.0 0.0 0.00 0.00 0.00 61 1014.6
20260502011803 55 5 0.0 0.0 0.00 0.00 0.00 57 1014.3
20260502011303 55 5 0.0 0.0 0.00 0.00 0.00 57 1014.3
20260502010303 56 5 0.0 0.0 0.00 0.00 0.00 55 1014.2
20260502004802 57 5 0.0 0.0 0.00 0.00 0.00 53 1014.2